FW3260 Weather Reports


Display with metric or nautical units.
time (UTC)temp
F
wind
direction
speed
MPH
gust
MPH
rain 1hr
in
rain 24hr
in
rain mn
in
humidity
%
barometer
mb
20201127075517 38 0.0 1.0 0.00 0.75 0.00 99 1016.5
20201127075022 39 332 0.0 1.0 0.00 0.75 0.00 99 1016.5
20201127074519 39 0.0 1.0 0.00 0.75 0.00 99 1016.6
20201127074015 39 71 0.0 1.0 0.00 0.75 0.00 99 1016.6
20201127073517 39 0.0 1.0 0.00 0.75 0.00 99 1016.6
20201127073035 40 71 0.0 1.0 0.00 0.75 0.00 99 1016.7
20201127072521 40 84 1.0 2.0 0.00 0.77 0.00 99 1016.6
20201127072022 41 117 0.0 2.0 0.00 0.77 0.00 99 1016.6
20201127071529 42 128 1.0 2.0 0.00 0.77 0.00 99 1016.6
20201127071021 42 0.0 2.0 0.00 0.77 0.00 99 1016.5
20201127070514 42 289 1.0 3.0 0.00 0.77 0.00 99 1016.5
20201127070025 42 295 1.0 3.0 0.00 0.77 0.00 99 1016.5
20201127065517 41 302 1.0 2.0 0.00 0.77 0.00 99 1016.6
20201127065024 40 293 1.0 2.0 0.00 0.77 0.00 99 1016.6
20201127064524 40 288 1.0 2.0 0.00 0.77 0.00 99 1016.6
20201127064025 41 288 0.0 2.0 0.00 0.77 0.00 99 1016.6
20201127063522 41 278 1.0 2.0 0.00 0.77 0.00 99 1016.5
20201127063026 41 264 1.0 2.0 0.00 0.77 0.00 99 1016.4
20201127062519 40 232 1.0 2.0 0.00 0.77 0.00 99 1016.4
20201127062022 40 180 0.0 1.0 0.00 0.77 0.00 99 1016.3
20201127061519 40 133 0.0 1.0 0.00 0.77 0.00 99 1016.2
20201127061017 40 49 0.0 1.0 0.00 0.77 0.00 99 1016.2
20201127060519 40 0.0 1.0 0.00 0.77 0.00 99 1016.0
20201127060027 40 334 0.0 1.0 0.00 0.77 0.00 99 1015.9
20201127055519 40 330 0.0 1.0 0.00 0.77 0.00 99 1015.9
20201127055018 40 319 0.0 2.0 0.00 0.77 0.00 99 1015.9
20201127054525 40 306 1.0 2.0 0.00 0.77 0.00 99 1015.9
20201127054023 40 280 1.0 2.0 0.00 0.77 0.00 99 1015.9
20201127053521 40 272 0.0 1.0 0.00 0.77 0.00 99 1016.0
20201127053025 41 269 0.0 1.0 0.00 0.77 0.00 99 1015.9
20201127052520 41 271 0.0 2.0 0.00 0.77 0.00 99 1015.9
20201127052025 41 271 1.0 2.0 0.00 0.77 0.00 99 1015.9
20201127051525 41 0.0 1.0 0.00 0.77 0.00 99 1015.9
20201127051030 41 261 0.0 2.0 0.00 0.77 0.00 99 1015.8
20201127050523 42 265 1.0 2.0 0.00 0.77 0.00 99 1015.9
20201127050025 42 269 0.0 1.0 0.00 0.77 0.00 99 1015.9
20201127045522 42 294 0.0 2.0 0.00 0.77 0.77 99 1015.9
20201127045025 42 327 0.0 2.0 0.00 0.77 0.77 99 1015.7
20201127044524 42 93 0.0 3.0 0.00 0.77 0.77 99 1015.7
20201127044023 42 53 2.0 3.0 0.00 0.77 0.77 99 1015.7
20201127043517 43 27 1.0 2.0 0.00 0.77 0.77 99 1015.6
20201127043026 43 48 0.0 1.0 0.00 0.77 0.77 99 1015.8
20201127042517 43 92 1.0 3.0 0.00 0.77 0.77 99 1015.8
20201127042020 44 117 1.0 2.0 0.00 0.77 0.77 99 1015.7
20201127041524 44 0.0 1.0 0.00 0.77 0.77 99 1015.6
20201127041028 43 278 1.0 2.0 0.00 0.77 0.77 99 1015.6
20201127040523 43 289 0.0 2.0 0.00 0.77 0.77 99 1015.6
20201127040029 42 0.0 1.0 0.00 0.77 0.77 99 1015.6
20201127035521 42 0.0 1.0 0.00 0.77 0.77 99 1015.7
20201127035018 41 310 0.0 2.0 0.00 0.77 0.77 99 1015.6
20201127034520 41 321 1.0 2.0 0.00 0.77 0.77 99 1015.6
20201127034022 41 352 0.0 1.0 0.00 0.77 0.77 99 1015.6
20201127033517 41 352 0.0 2.0 0.00 0.77 0.77 99 1015.5
20201127033020 41 0.0 0.0 0.00 0.77 0.77 99 1015.5
20201127032519 42 0.0 0.0 0.00 0.77 0.77 99 1015.4
20201127032023 42 0.0 0.0 0.00 0.77 0.77 99 1015.4
20201127031521 42 0.0 0.0 0.00 0.77 0.77 99 1015.4
20201127031024 42 0.0 0.0 0.00 0.77 0.77 99 1015.3
20201127030526 42 0.0 0.0 0.00 0.77 0.77 99 1015.2
20201127030033 42 0.0 0.0 0.01 0.77 0.77 99 1015.2
20201127025528 42 0.0 0.0 0.01 0.77 0.77 99 1015.3
20201127025026 42 0.0 0.0 0.01 0.77 0.77 99 1015.2
20201127024524 42 0.0 0.0 0.01 0.77 0.77 99 1015.2
20201127024019 42 0.0 0.0 0.01 0.77 0.77 99 1015.2
20201127023520 42 0.0 0.0 0.01 0.77 0.77 99 1015.3
20201127023020 42 0.0 0.0 0.01 0.77 0.77 99 1015.3
20201127022517 42 0.0 0.0 0.01 0.77 0.77 99 1015.3
20201127022018 42 0.0 0.0 0.01 0.77 0.77 99 1015.3
20201127021530 42 0.0 0.0 0.01 0.77 0.77 99 1015.4
20201127021023 42 0.0 0.0 0.01 0.77 0.77 99 1015.4
20201127020519 43 0.0 0.0 0.01 0.77 0.77 99 1015.4
20201127020030 43 0.0 1.0 0.00 0.76 0.76 99 1015.3
20201127015521 43 262 0.0 1.0 0.00 0.76 0.76 99 1015.3
20201127015027 43 262 1.0 2.0 0.00 0.76 0.76 99 1015.3
20201127014523 43 262 1.0 2.0 0.00 0.76 0.76 99 1015.2
20201127014023 43 0.0 0.0 0.00 0.76 0.76 99 1015.2
20201127013519 43 0.0 0.0 0.00 0.76 0.76 99 1015.2
20201127013024 43 0.0 0.0 0.00 0.76 0.76 99 1015.2
20201127012524 43 0.0 1.0 0.00 0.76 0.76 99 1015.1
20201127012022 43 0.0 1.0 0.00 0.76 0.76 99 1015.1
20201127011522 43 5 0.0 1.0 0.00 0.76 0.76 99 1015.1
20201127011025 43 8 1.0 2.0 0.00 0.76 0.76 99 1015.1
20201127010518 42 0.0 0.0 0.00 0.76 0.76 99 1015.1
20201127010041 42 0.0 0.0 0.00 0.76 0.76 99 1015.1
20201127005518 42 0.0 0.0 0.00 0.76 0.76 99 1015.1
20201127005030 42 0.0 0.0 0.00 0.76 0.76 99 1015.1
20201127004521 42 0.0 0.0 0.00 0.76 0.76 99 1015.0
20201127004026 43 0.0 0.0 0.00 0.76 0.76 99 1014.9
20201127003518 43 0.0 0.0 0.00 0.76 0.76 99 1014.9
20201127003022 43 0.0 0.0 0.00 0.76 0.76 99 1014.8
20201127002521 43 0.0 0.0 0.00 0.76 0.76 99 1014.8
20201127002030 43 0.0 0.0 0.00 0.76 0.76 99 1014.8
20201127001518 43 0.0 0.0 0.00 0.76 0.76 99 1014.8
20201127001020 44 0.0 0.0 0.00 0.76 0.76 99 1014.7
20201127000535 44 0.0 1.0 0.00 0.76 0.76 99 1014.7
20201127000025 44 5 0.0 1.0 0.00 0.76 0.76 99 1014.6
20201126235524 44 5 0.0 1.0 0.00 0.76 0.76 99 1014.6
20201126235021 44 0.0 0.0 0.00 0.76 0.76 99 1014.6
20201126234526 44 5 0.0 1.0 0.00 0.76 0.76 99 1014.6
20201126234032 44 23 0.0 1.0 0.00 0.76 0.76 99 1014.5
20201126233517 44 111 0.0 1.0 0.00 0.76 0.76 98 1014.5
20201126233023 44 0.0 1.0 0.00 0.76 0.76 98 1014.4
20201126232520 45 0.0 2.0 0.00 0.76 0.76 98 1014.4
20201126232022 45 136 0.0 2.0 0.00 0.76 0.76 98 1014.3
20201126231522 46 0.0 1.0 0.00 0.76 0.76 99 1014.2
20201126231023 46 270 1.0 2.0 0.00 0.76 0.76 99 1014.2
20201126230517 46 285 1.0 2.0 0.00 0.76 0.76 99 1014.2
20201126230024 46 285 1.0 3.0 0.00 0.76 0.76 99 1014.2
20201126225520 46 283 1.0 3.0 0.00 0.76 0.76 99 1014.2
20201126225024 46 283 2.0 3.0 0.00 0.76 0.76 99 1014.2
20201126224521 46 278 2.0 4.0 0.00 0.76 0.76 99 1014.2
20201126224025 46 288 2.0 4.0 0.00 0.76 0.76 99 1014.2
20201126223519 46 310 2.0 4.0 0.00 0.76 0.76 98 1014.1
20201126223036 47 305 1.0 2.0 0.00 0.76 0.76 98 1013.9
20201126222520 47 293 1.0 2.0 0.00 0.76 0.76 99 1013.9
20201126222024 47 292 1.0 2.0 0.00 0.76 0.76 99 1013.8
20201126221520 48 286 1.0 3.0 0.00 0.76 0.76 99 1013.8
20201126221023 48 302 2.0 3.0 0.00 0.76 0.76 99 1013.8
20201126220517 48 281 2.0 4.0 0.00 0.76 0.76 99 1013.8
20201126220019 48 291 2.0 3.0 0.00 0.76 0.76 99 1013.7
20201126215517 48 286 1.0 3.0 0.00 0.76 0.76 99 1013.7
20201126215020 48 291 1.0 2.0 0.00 0.76 0.76 99 1013.5
20201126214520 48 289 1.0 2.0 0.00 0.76 0.76 99 1013.4
20201126214018 49 295 1.0 4.0 0.00 0.76 0.76 99 1013.4
20201126213517 49 314 2.0 4.0 0.00 0.76 0.76 99 1013.3
20201126213019 50 328 2.0 4.0 0.00 0.76 0.76 99 1013.2
20201126212540 50 282 2.0 3.0 0.00 0.76 0.76 99 1013.2
20201126212022 50 280 2.0 3.0 0.00 0.76 0.76 99 1013.2
20201126211523 50 313 2.0 3.0 0.00 0.76 0.76 99 1013.1
20201126211031 50 322 0.0 1.0 0.00 0.76 0.76 99 1013.0
20201126210525 50 336 1.0 2.0 0.00 0.76 0.76 99 1012.9
20201126210030 50 348 0.0 1.0 0.00 0.76 0.76 99 1012.8
20201126205520 50 325 0.0 1.0 0.00 0.76 0.76 99 1012.7
20201126205018 50 0.0 1.0 0.00 0.76 0.76 99 1012.6
20201126204521 50 0.0 1.0 0.00 0.76 0.76 99 1012.5
20201126204017 50 292 0.0 2.0 0.00 0.76 0.76 99 1012.5
20201126203523 49 291 1.0 3.0 0.00 0.76 0.76 99 1012.5
20201126203017 50 299 2.0 3.0 0.00 0.76 0.76 99 1012.6
20201126202520 50 309 2.0 3.0 0.00 0.76 0.76 99 1012.5
20201126202032 50 323 1.0 2.0 0.00 0.76 0.76 99 1012.4
20201126201520 50 0.0 2.0 0.00 0.76 0.76 99 1012.4
20201126201017 50 317 1.0 2.0 0.00 0.76 0.76 99 1012.4
20201126200520 50 294 0.0 2.0 0.00 0.76 0.76 99 1012.4
20201126200019 50 320 1.0 2.0 0.00 0.76 0.76 99 1012.3
20201126195519 51 317 0.0 3.0 0.00 0.76 0.76 99 1012.3
20201126195019 51 323 2.0 3.0 0.00 0.76 0.76 99 1012.3
20201126194536 51 338 1.0 2.0 0.00 0.76 0.76 99 1012.3
20201126194024 50 340 1.0 2.0 0.00 0.76 0.76 99 1012.3
20201126193517 50 350 0.0 1.0 0.00 0.76 0.76 99 1012.2
20201126193035 50 20 1.0 2.0 0.00 0.76 0.76 99 1012.1
20201126192517 50 44 0.0 2.0 0.00 0.76 0.76 99 1012.2
20201126192022 50 0.0 1.0 0.00 0.76 0.76 99 1012.3
20201126191540 50 341 0.0 1.0 0.00 0.76 0.76 99 1012.4
20201126191029 50 350 1.0 3.0 0.00 0.76 0.76 99 1012.4
20201126190517 49 358 1.0 2.0 0.01 0.76 0.76 99 1012.5
20201126190023 49 46 0.0 2.0 0.01 0.76 0.76 99 1012.5
20201126185522 50 70 1.0 2.0 0.03 0.76 0.76 99 1012.4
20201126185022 50 99 0.0 2.0 0.03 0.76 0.76 99 1012.3
20201126184519 50 110 1.0 2.0 0.03 0.76 0.76 99 1012.4
20201126184021 50 48 0.0 1.0 0.03 0.76 0.76 99 1012.5
20201126183518 50 271 0.0 1.0 0.03 0.76 0.76 99 1012.6
20201126183017 49 288 0.0 2.0 0.03 0.76 0.76 99 1012.6
20201126182521 49 327 1.0 2.0 0.03 0.76 0.76 99 1012.6
20201126182037 49 359 0.0 2.0 0.03 0.76 0.76 98 1012.6
20201126181519 49 0.0 0.0 0.03 0.76 0.76 99 1012.6
20201126181022 50 0.0 1.0 0.03 0.76 0.76 99 1012.6
20201126180527 50 121 0.0 1.0 0.02 0.75 0.75 99 1012.6
20201126180027 50 121 0.0 2.0 0.02 0.75 0.75 99 1012.6
20201126175517 50 125 1.0 2.0 0.00 0.73 0.73 99 1012.6
20201126175033 50 5 0.0 1.0 0.00 0.73 0.73 99 1012.8
20201126174519 50 0.0 0.0 0.00 0.73 0.73 99 1012.8
20201126174030 50 0.0 0.0 0.00 0.73 0.73 99 1012.8
20201126173526 50 0.0 0.0 0.00 0.73 0.73 99 1012.9
20201126173025 50 0.0 0.0 0.00 0.73 0.73 99 1012.9
20201126172518 49 0.0 0.0 0.00 0.73 0.73 99 1012.9
20201126172021 49 0.0 0.0 0.00 0.73 0.73 99 1012.8
20201126171522 49 0.0 0.0 0.00 0.73 0.73 99 1012.9
20201126171033 49 0.0 0.0 0.00 0.73 0.73 99 1013.0
20201126170519 48 0.0 0.0 0.00 0.73 0.73 99 1013.2
20201126170028 48 0.0 0.0 0.01 0.73 0.73 98 1013.4
20201126165519 48 0.0 1.0 0.01 0.73 0.73 98 1013.6
20201126165019 48 5 0.0 1.0 0.02 0.73 0.73 98 1013.7
20201126164517 48 5 0.0 1.0 0.02 0.73 0.73 99 1013.7
20201126164018 48 0.0 0.0 0.03 0.73 0.73 99 1013.8
20201126163520 48 0.0 0.0 0.04 0.73 0.73 99 1013.7
20201126163021 48 0.0 0.0 0.05 0.73 0.73 98 1013.9
20201126162517 48 0.0 0.0 0.05 0.73 0.73 98 1014.2
20201126162024 47 0.0 0.0 0.06 0.73 0.73 98 1014.3
20201126161518 47 0.0 1.0 0.06 0.73 0.73 98 1014.3
20201126161017 46 0.0 2.0 0.06 0.73 0.73 98 1014.4
20201126160523 46 306 1.0 2.0 0.06 0.73 0.73 98 1014.6
20201126160027 46 0.0 2.0 0.05 0.72 0.72 98 1014.7
20201126155530 46 306 1.0 2.0 0.07 0.72 0.72 98 1014.8
20201126155050 46 311 1.0 2.0 0.07 0.71 0.71 98 1014.9
20201126154631 46 327 0.0 1.0 0.07 0.71 0.71 98 1015.0
20201126154025 46 327 0.0 2.0 0.07 0.70 0.70 98 1015.2
20201126153517 46 327 1.0 2.0 0.07 0.69 0.69 98 1015.2
20201126153019 46 334 1.0 3.0 0.06 0.68 0.68 98 1015.2
20201126152523 47 331 1.0 3.0 0.07 0.68 0.68 99 1015.3
20201126152021 47 0.0 0.0 0.07 0.67 0.67 99 1015.4
20201126151532 47 0.0 0.0 0.07 0.67 0.67 99 1015.4
20201126151017 46 0.0 1.0 0.09 0.67 0.67 99 1015.5
20201126150524 46 323 0.0 1.0 0.09 0.67 0.67 98 1015.5
20201126150028 46 0.0 0.0 0.09 0.67 0.67 98 1015.7
20201126145519 45 0.0 0.0 0.07 0.65 0.65 98 1015.9
20201126145023 45 0.0 0.0 0.06 0.64 0.64 98 1015.9
20201126144521 45 0.0 0.0 0.06 0.64 0.64 98 1016.1
20201126144020 45 0.0 1.0 0.05 0.63 0.63 98 1016.2
20201126143518 45 323 0.0 1.0 0.04 0.62 0.62 98 1016.2
20201126143020 45 318 0.0 2.0 0.05 0.62 0.62 98 1016.3
20201126142520 45 325 1.0 2.0 0.05 0.61 0.61 98 1016.3
20201126142019 45 341 0.0 2.0 0.04 0.60 0.60 98 1016.2
20201126141534 44 341 0.0 1.0 0.04 0.60 0.60 98 1016.3
20201126141019 44 0.0 0.0 0.02 0.58 0.58 98 1016.4
20201126140517 44 341 0.0 1.0 0.02 0.58 0.58 98 1016.4
20201126140046 44 0.0 1.0 0.03 0.58 0.58 98 1016.5
20201126135519 44 341 0.0 1.0 0.03 0.58 0.58 98 1016.5
20201126135020 44 0.0 0.0 0.03 0.58 0.58 98 1016.6
20201126134524 44 0.0 0.0 0.04 0.58 0.58 98 1016.7
20201126134019 44 0.0 0.0 0.04 0.58 0.58 98 1016.7
20201126133520 44 0.0 0.0 0.05 0.58 0.58 98 1016.8
20201126133028 44 0.0 0.0 0.04 0.57 0.57 98 1016.9
20201126132518 44 0.0 0.0 0.04 0.56 0.56 98 1016.9
20201126132027 43 0.0 0.0 0.06 0.56 0.56 98 1017.0
20201126131528 43 0.0 0.0 0.08 0.56 0.56 98 1016.9
20201126131046 43 0.0 1.0 0.10 0.56 0.56 98 1017.0
20201126130523 43 344 0.0 1.0 0.12 0.56 0.56 98 1017.0
20201126130048 43 0.0 1.0 0.13 0.55 0.55 98 1017.0
20201126125528 43 343 0.0 1.0 0.15 0.55 0.55 98 1017.1
20201126125023 43 342 0.0 1.0 0.17 0.55 0.55 98 1017.2
20201126124522 43 0.0 0.0 0.18 0.54 0.54 98 1017.2
20201126124020 43 0.0 1.0 0.19 0.54 0.54 98 1017.1
20201126123520 42 0.0 1.0 0.19 0.53 0.53 98 1017.2
20201126123023 42 342 0.0 2.0 0.21 0.53 0.53 98 1017.2
20201126122520 42 347 0.0 2.0 0.23 0.52 0.52 98 1017.2
20201126122026 42 319 0.0 1.0 0.23 0.50 0.50 98 1017.3
20201126121528 42 0.0 1.0 0.24 0.48 0.48 98 1017.4
20201126121019 42 312 0.0 1.0 0.24 0.46 0.46 98 1017.4
20201126120520 42 0.0 1.0 0.24 0.44 0.44 98 1017.4
20201126120023 42 312 0.0 2.0 0.25 0.42 0.42 97 1017.5
20201126115520 42 313 0.0 2.0 0.24 0.40 0.40 97 1017.5
20201126115022 42 0.0 1.0 0.23 0.38 0.38 97 1017.5
20201126114530 41 0.0 1.0 0.21 0.36 0.36 97 1017.6
20201126114019 41 281 0.0 3.0 0.22 0.35 0.35 97 1017.6
20201126113523 41 288 1.0 3.0 0.23 0.34 0.34 97 1017.6
20201126113036 41 296 1.0 5.0 0.22 0.32 0.32 97 1017.6
20201126112518 41 301 3.0 5.0 0.20 0.29 0.29 97 1017.6
20201126112022 41 310 4.0 9.0 0.19 0.27 0.27 97 1017.7
20201126111521 41 305 3.0 9.0 0.17 0.24 0.24 97 1017.7
20201126111026 42 308 3.0 7.0 0.15 0.22 0.22 97 1017.7
20201126110522 42 308 2.0 4.0 0.13 0.20 0.20 97 1017.6
20201126110048 42 281 1.0 3.0 0.11 0.17 0.17 97 1017.6
20201126105526 42 304 1.0 2.0 0.10 0.16 0.16 97 1017.6
20201126105022 42 307 1.0 2.0 0.10 0.15 0.15 97 1017.5
20201126104517 42 304 0.0 1.0 0.10 0.15 0.15 98 1017.5
20201126104019 42 304 0.0 2.0 0.08 0.13 0.13 97 1017.7
20201126103517 42 311 1.0 3.0 0.06 0.11 0.11 97 1017.8
20201126103023 41 300 1.0 3.0 0.05 0.10 0.10 97 1017.7
20201126102518 41 0.0 1.0 0.05 0.09 0.09 97 1017.6
20201126102023 41 281 0.0 2.0 0.04 0.08 0.08 97 1017.8
20201126101523 41 281 1.0 2.0 0.03 0.07 0.07 97 1017.9
20201126101023 41 281 0.0 1.0 0.03 0.07 0.07 97 1018.0
20201126100519 40 0.0 1.0 0.03 0.07 0.07 97 1018.0
20201126100027 40 0.0 1.0 0.03 0.06 0.06 97 1018.1
20201126095518 40 0.0 1.0 0.03 0.06 0.06 96 1018.1
20201126095023 40 279 1.0 2.0 0.02 0.05 0.05 96 1018.3
20201126094521 40 294 0.0 3.0 0.02 0.05 0.05 96 1018.3
20201126094022 40 291 1.0 3.0 0.02 0.05 0.05 96 1018.6
20201126093517 40 321 0.0 2.0 0.02 0.05 0.05 96 1018.6
20201126093028 41 293 1.0 3.0 0.02 0.05 0.05 96 1018.7
20201126092520 41 304 2.0 8.0 0.01 0.04 0.04 96 1018.9
20201126092020 41 91 2.0 7.0 0.01 0.04 0.04 96 1018.7
20201126091518 41 288 3.0 7.0 0.01 0.04 0.04 96 1018.9
20201126091019 41 246 4.0 9.0 0.01 0.04 0.04 96 1018.9
20201126090521 41 70 3.0 9.0 0.01 0.04 0.04 96 1018.8
20201126090022 41 302 3.0 7.0 0.00 0.03 0.03 96 1019.0
20201126085524 41 251 4.0 8.0 0.01 0.03 0.03 96 1019.1
20201126085025 41 54 2.0 4.0 0.01 0.03 0.03 96 1019.1
20201126084527 41 306 0.0 3.0 0.01 0.03 0.03 96 1019.2
20201126084026 41 0.0 1.0 0.01 0.03 0.03 96 1019.2
20201126083521 41 0.0 2.0 0.01 0.03 0.03 96 1019.3
20201126083036 41 297 1.0 3.0 0.01 0.03 0.03 96 1019.4
20201126082517 41 160 1.0 3.0 0.03 0.03 0.03 96 1019.5
20201126082020 40 0.0 0.0 0.03 0.03 0.03 96 1019.5
20201126081522 40 0.0 0.0 0.03 0.03 0.03 96 1019.6
20201126081019 40 0.0 0.0 0.03 0.03 0.03 96 1019.6
20201126080517 40 0.0 0.0 0.03 0.03 0.03 96 1019.7
20201126080022 40 0.0 0.0 0.03 0.03 0.03 95 1019.8